Terminal Aerodrome Forecast
Issued by NWS Cleveland, OH

Home | Current Version | Previous Version | Graphics & Text | Print | Product List | Glossary On
Versions: 1 2 3 4 5 6 7 8 9 10 11 12 13 14 15 16 17 18 19
324
FTUS41 KCLE 230140 AAB
TAFERI
TAF AMD
KERI 230140Z 2302/2324 20008KT P6SM OVC025
     FM230600 20010KT 6SM HZ OVC018
     FM231200 20014G20KT 6SM HZ OVC012
     FM232000 23012KT P6SM OVC025
     FM232200 26010KT P6SM OVC025=

USA.gov is the U.S. government's official web portal to all federal, state and local government web resources and services.